| time (UTC) | temp F | wind direction | speed MPH | gust MPH | rain 1hr in | rain 24hr in | rain mn in | humidity % | barometer mb |
| 20260831131554 | 48 | 0 | 0.0 | 0.0 | 0.00 | 0.00 | 0.00 | 81 | 1016.9 |
| 20260831130101 | 47 | 0 | 0.0 | 0.0 | 0.00 | 0.00 | 0.00 | 81 | 1017.0 |
| 20260831124558 | 47 | 0 | 0.0 | 0.0 | 0.00 | 0.00 | 0.00 | 81 | 1016.8 |
| 20260831123055 | 47 | 0 | 0.0 | 0.0 | 0.00 | 0.00 | 0.00 | 80 | 1017.0 |
| 20260831121551 | 48 | 0 | 0.0 | 0.0 | 0.00 | 0.00 | 0.00 | 79 | 1016.9 |
| 20260831120059 | 49 | 0 | 0.0 | 0.0 | 0.00 | 0.00 | 0.00 | 77 | 1016.9 |
| 20260831114600 | 50 | 0 | 0.0 | 0.0 | 0.00 | 0.00 | 0.00 | 74 | 1017.0 |
| 20260831113109 | 51 | 0 | 0.0 | 0.0 | 0.00 | 0.00 | 0.00 | 75 | 1017.1 |
| 20260831111601 | 51 | 0 | 0.0 | 0.0 | 0.00 | 0.00 | 0.00 | 74 | 1017.1 |
| 20260831110048 | 51 | 0 | 0.0 | 0.0 | 0.00 | 0.00 | 0.00 | 74 | 1017.1 |
| 20260831104558 | 51 | 0 | 0.0 | 0.0 | 0.00 | 0.00 | 0.00 | 74 | 1017.1 |
| 20260831103101 | 51 | 0 | 0.0 | 0.0 | 0.00 | 0.00 | 0.00 | 74 | 1017.2 |
| 20260831101552 | 52 | 0 | 0.0 | 0.0 | 0.00 | 0.00 | 0.00 | 72 | 1017.3 |
| 20260831100047 | 54 | 0 | 0.0 | 0.0 | 0.00 | 0.00 | 0.00 | 71 | 1017.2 |
| 20260831094559 | 55 | 0 | 0.0 | 0.0 | 0.00 | 0.00 | 0.00 | 70 | 1017.1 |
| 20260831093054 | 55 | 0 | 0.0 | 0.0 | 0.00 | 0.00 | 0.00 | 68 | 1017.2 |
| 20260831091550 | 56 | 0 | 0.0 | 0.0 | 0.00 | 0.00 | 0.00 | 67 | 1017.2 |
| 20260831090104 | 56 | 0 | 0.0 | 0.0 | 0.00 | 0.00 | 0.00 | 66 | 1017.2 |
| 20260831084548 | 56 | 0 | 0.0 | 0.0 | 0.00 | 0.00 | 0.00 | 66 | 1017.2 |
| 20260831083059 | 57 | 0 | 0.0 | 0.0 | 0.00 | 0.00 | 0.00 | 65 | 1017.4 |
| 20260831081552 | 57 | 0 | 0.0 | 0.0 | 0.00 | 0.00 | 0.00 | 65 | 1017.5 |
| 20260831080055 | 58 | 0 | 0.0 | 0.0 | 0.00 | 0.00 | 0.00 | 64 | 1017.4 |
| 20260831074559 | 58 | 0 | 0.0 | 0.0 | 0.00 | 0.00 | 0.00 | 64 | 1017.6 |
| 20260831073056 | 58 | 0 | 0.0 | 0.0 | 0.00 | 0.00 | 0.00 | 63 | 1017.5 |
| 20260831071556 | 58 | 0 | 0.0 | 2.0 | 0.00 | 0.00 | 0.00 | 62 | 1017.4 |
| 20260831070108 | 59 | 177 | 0.0 | 3.0 | 0.00 | 0.00 | 0.00 | 61 | 1017.3 |
| 20260831064600 | 61 | 0 | 0.0 | 0.0 | 0.00 | 0.00 | 0.00 | 58 | 1017.3 |
| 20260831063055 | 63 | 0 | 0.0 | 3.0 | 0.00 | 0.00 | 0.00 | 56 | 1017.3 |
| 20260831061603 | 63 | 0 | 0.0 | 2.0 | 0.00 | 0.00 | 0.00 | 54 | 1017.2 |
| 20260831060109 | 63 | 0 | 0.0 | 2.0 | 0.00 | 0.00 | 0.00 | 55 | 1017.3 |
| 20260831054549 | 63 | 0 | 0.0 | 2.0 | 0.00 | 0.00 | 0.00 | 54 | 1017.3 |
| 20260831053102 | 64 | 197 | 1.0 | 3.0 | 0.00 | 0.00 | 0.00 | 52 | 1017.4 |
| 20260831051600 | 65 | 0 | 0.0 | 5.0 | 0.00 | 0.00 | 0.00 | 51 | 1017.5 |
| 20260831050059 | 66 | 0 | 0.0 | 0.0 | 0.00 | 0.00 | 0.00 | 50 | 1017.4 |
| 20260831044612 | 67 | 0 | 0.0 | 3.0 | 0.00 | 0.00 | 0.00 | 48 | 1017.3 |
| 20260831043056 | 68 | 0 | 0.0 | 3.0 | 0.00 | 0.00 | 0.00 | 46 | 1017.0 |
| 20260831041554 | 70 | 0 | 0.0 | 5.0 | 0.00 | 0.00 | 0.00 | 44 | 1017.0 |
| 20260831040057 | 72 | 207 | 4.0 | 8.0 | 0.00 | 0.00 | 0.00 | 40 | 1016.6 |
| 20260831034554 | 71 | 257 | 2.0 | 8.0 | 0.00 | 0.00 | 0.00 | 42 | 1016.5 |
| 20260831033051 | 72 | 0 | 0.0 | 3.0 | 0.00 | 0.00 | 0.00 | 42 | 1016.3 |
| 20260831031555 | 73 | 185 | 1.0 | 10.0 | 0.00 | 0.00 | 0.00 | 40 | 1016.2 |
| 20260831030052 | 73 | 251 | 2.0 | 7.0 | 0.00 | 0.00 | 0.00 | 40 | 1015.9 |
| 20260831024548 | 73 | 184 | 1.0 | 10.0 | 0.00 | 0.00 | 0.00 | 40 | 1015.9 |
| 20260831023100 | 74 | 294 | 4.0 | 11.0 | 0.00 | 0.00 | 0.00 | 39 | 1015.8 |
| 20260831021554 | 76 | 263 | 4.0 | 10.0 | 0.00 | 0.00 | 0.00 | 37 | 1015.7 |
| 20260831020056 | 78 | 0 | 1.0 | 7.0 | 0.00 | 0.00 | 0.00 | 34 | 1015.7 |
| 20260831014553 | 78 | 309 | 2.0 | 10.0 | 0.00 | 0.00 | 0.00 | 34 | 1015.8 |
| 20260831013107 | 79 | 302 | 3.0 | 11.0 | 0.00 | 0.00 | 0.00 | 32 | 1015.8 |
| 20260831011602 | 80 | 254 | 5.0 | 11.0 | 0.00 | 0.00 | 0.00 | 31 | 1015.8 |
| 20260831010056 | 81 | 271 | 3.0 | 14.0 | 0.00 | 0.00 | 0.00 | 30 | 1015.7 |
| 20260831004548 | 81 | 306 | 7.0 | 14.0 | 0.00 | 0.00 | 0.00 | 29 | 1015.4 |
| 20260831003105 | 82 | 247 | 6.0 | 13.0 | 0.00 | 0.00 | 0.00 | 28 | 1015.4 |
| 20260831001552 | 82 | 308 | 4.0 | 12.0 | 0.00 | 0.00 | 0.00 | 26 | 1015.6 |
| 20260831000049 | 82 | 294 | 5.0 | 12.0 | 0.00 | 0.00 | 0.00 | 26 | 1015.6 |
| 20260830234557 | 83 | 275 | 4.0 | 11.0 | 0.00 | 0.00 | 0.00 | 26 | 1015.6 |
| 20260830233100 | 83 | 262 | 4.0 | 14.0 | 0.00 | 0.00 | 0.00 | 24 | 1015.7 |
| 20260830231549 | 84 | 36 | 2.0 | 7.0 | 0.00 | 0.00 | 0.00 | 22 | 1015.7 |
| 20260830230048 | 83 | 0 | 0.0 | 9.0 | 0.00 | 0.00 | 0.00 | 27 | 1015.8 |
| 20260830224556 | 83 | 0 | 2.0 | 9.0 | 0.00 | 0.00 | 0.00 | 24 | 1015.9 |
| 20260830223107 | 83 | 0 | 0.0 | 8.0 | 0.00 | 0.00 | 0.00 | 23 | 1016.2 |
| 20260830221603 | 83 | 261 | 2.0 | 8.0 | 0.00 | 0.00 | 0.00 | 22 | 1016.4 |
| 20260830220055 | 83 | 298 | 0.0 | 6.0 | 0.00 | 0.00 | 0.00 | 21 | 1016.6 |
| 20260830214618 | 83 | 335 | 1.0 | 7.0 | 0.00 | 0.00 | 0.00 | 22 | 1016.9 |
| 20260830213056 | 83 | 287 | 1.0 | 5.0 | 0.00 | 0.00 | 0.00 | 20 | 1017.2 |
| 20260830211551 | 82 | 188 | 1.0 | 7.0 | 0.00 | 0.00 | 0.00 | 25 | 1017.5 |
| 20260830210048 | 82 | 31 | 0.0 | 3.0 | 0.00 | 0.00 | 0.00 | 23 | 1017.6 |
| 20260830204600 | 80 | 0 | 1.0 | 5.0 | 0.00 | 0.00 | 0.00 | 20 | 1017.7 |
| 20260830203101 | 79 | 96 | 1.0 | 8.0 | 0.00 | 0.00 | 0.00 | 22 | 1017.9 |
| 20260830201554 | 80 | 22 | 0.0 | 5.0 | 0.00 | 0.00 | 0.00 | 22 | 1018.0 |
| 20260830200104 | 79 | 0 | 0.0 | 5.0 | 0.00 | 0.00 | 0.00 | 24 | 1018.1 |
| 20260830194601 | 78 | 0 | 0.0 | 3.0 | 0.00 | 0.00 | 0.00 | 23 | 1018.2 |
| 20260830193051 | 76 | 262 | 1.0 | 5.0 | 0.00 | 0.00 | 0.00 | 24 | 1018.4 |
| 20260830191551 | 75 | 192 | 1.0 | 7.0 | 0.00 | 0.00 | 0.00 | 29 | 1018.7 |
| 20260830190125 | 75 | 278 | 1.0 | 5.0 | 0.00 | 0.00 | 0.00 | 27 | 1018.8 |
| 20260830184619 | 74 | 304 | 2.0 | 4.0 | 0.00 | 0.00 | 0.00 | 27 | 1019.1 |
| 20260830183101 | 74 | 325 | 0.0 | 3.0 | 0.00 | 0.00 | 0.00 | 28 | 1019.3 |
| 20260830181554 | 73 | 0 | 1.0 | 5.0 | 0.00 | 0.00 | 0.00 | 30 | 1019.5 |
| 20260830180112 | 71 | 0 | 0.0 | 4.0 | 0.00 | 0.00 | 0.00 | 31 | 1019.6 |
| 20260830174625 | 69 | 0 | 0.0 | 4.0 | 0.00 | 0.00 | 0.00 | 33 | 1019.8 |
| 20260830173051 | 69 | 174 | 0.0 | 2.0 | 0.00 | 0.00 | 0.00 | 34 | 1019.9 |
| 20260830171553 | 67 | 0 | 0.0 | 4.0 | 0.00 | 0.00 | 0.00 | 36 | 1020.0 |
| 20260830170053 | 67 | 0 | 0.0 | 1.0 | 0.00 | 0.00 | 0.00 | 35 | 1020.0 |
| 20260830164603 | 65 | 0 | 0.0 | 2.0 | 0.00 | 0.00 | 0.00 | 40 | 1020.0 |
| 20260830163050 | 62 | 0 | 0.0 | 3.0 | 0.00 | 0.00 | 0.00 | 43 | 1020.1 |
| 20260830161551 | 60 | 0 | 0.0 | 0.0 | 0.00 | 0.00 | 0.00 | 49 | 1020.1 |
| 20260830160059 | 58 | 0 | 0.0 | 0.0 | 0.00 | 0.00 | 0.00 | 52 | 1020.2 |
| 20260830154553 | 56 | 0 | 0.0 | 2.0 | 0.00 | 0.00 | 0.00 | 53 | 1020.3 |
| 20260830153055 | 54 | 0 | 0.0 | 3.0 | 0.00 | 0.00 | 0.00 | 60 | 1020.4 |
| 20260830151553 | 53 | 276 | 1.0 | 4.0 | 0.00 | 0.00 | 0.00 | 64 | 1020.3 |
| 20260830150106 | 50 | 0 | 0.0 | 0.0 | 0.00 | 0.00 | 0.00 | 71 | 1020.2 |
| 20260830144600 | 48 | 0 | 0.0 | 0.0 | 0.00 | 0.00 | 0.00 | 78 | 1020.2 |
| 20260830143104 | 47 | 0 | 0.0 | 1.0 | 0.00 | 0.00 | 0.00 | 78 | 1020.2 |
| 20260830141549 | 45 | 0 | 0.0 | 0.0 | 0.00 | 0.00 | 0.00 | 76 | 1020.1 |
| 20260830140057 | 44 | 0 | 0.0 | 0.0 | 0.00 | 0.00 | 0.00 | 79 | 1020.1 |
| 20260830134559 | 44 | 0 | 0.0 | 0.0 | 0.00 | 0.00 | 0.00 | 79 | 1019.8 |
| 20260830133055 | 45 | 0 | 0.0 | 1.0 | 0.00 | 0.00 | 0.00 | 78 | 1019.7 |